User: anonymous   Login
Location: Unspecified
(0.0000°N, 0.0000°E)
Time: 16:39:12
(UTC+00:00)
Language:

NOAA 17 - Orbit

View from above orbital plane
View from above orbital plane
View from above satellite
View from above satellite

Ground track
Ground track

The orbit data is extracted from the following two-line orbital elements,

1 27453U 02032A   15059.51604215  .00000094  00000-0  57654-4 0  9996
2 27453 098.3322 050.9405 0012471 137.5932 222.6214 14.24856417659188
Epoch (UTC): 28 February 2015 12:23:06
Eccentricity: 0.0012471
inclination: 98.3322°
perigee height: 800 km
apogee height: 818 km
right ascension of ascending node: 50.9405°
argument of perigee: 137.5932°
revolutions per day: 14.24856417
mean anomaly at epoch: 222.6214°
orbit number at epoch: 65918

The dashed part of the orbit path shows where the satellite is in the earth's shadow,  

DLR